Tracking 26935 objects as of 5-Feb-2023
HD Live streaming from Space Station
objects crossing your sky now

STARLINK-3083

Track STARLINK-3083 now!
10-day predictions
STARLINK-3083 is classified as:


NORAD ID: 49158
Int'l Code: 2021-082AE
Perigee: 577.4 km
Apogee: 581.0 km
Inclination: 70.0 °
Period: 96.1 minutes
Semi major axis: 6950 km
RCS: Unknown
Launch date: September 14, 2021
Source: United States (US)
Launch site: AIR FORCE WESTERN TEST RANGE (AFWTR)
Your satellite tracking list
Your tracking list is empty




NASA's NSSDC Master Catalog

Two Line Element Set (TLE):
1 49158U 21082AE  23035.87392957  .00002255  00000-0  19672-3 0  9995
2 49158  69.9973 240.6035 0002635 273.9493  86.1365 14.98323466 78487
Source of the keplerian elements: AFSPC